This is the latest recevied weather packets stored in our database for station/object KB4RFE. If no packets are shown the sender has not sent any weather packets the latest 10 day(s).
| Time | Temp. | Humidity | Pressure | Rain* | Wind** | Luminosity | Snow |
|---|---|---|---|---|---|---|---|
| 1788523776 | 26.67° C | 96% | 1019.7 hPa | 0 mm | - | 28 W/m² | - |
| 1788523472 | 26.67° C | 96% | 1019.7 hPa | 0 mm | - | 29 W/m² | - |
| 1788523166 | 26.67° C | 96% | 1019.5 hPa | 0 mm | - | 27 W/m² | - |
| 1788522862 | 26.11° C | 96% | 1019.5 hPa | 0 mm | - | 30 W/m² | - |
| 1788522562 | 26.11° C | 96% | 1019.6 hPa | 0 mm | - | 35 W/m² | - |
| 1788522262 | 26.11° C | 96% | 1019.6 hPa | 0 mm | - | 29 W/m² | - |
| 1788521958 | 26.11° C | 96% | 1019.5 hPa | 0 mm | - | 29 W/m² | - |
| 1788521657 | 26.11° C | 96% | 1019.5 hPa | 0 mm | - | 28 W/m² | - |
| 1788521356 | 26.11° C | 96% | 1019.6 hPa | 0 mm | - | 21 W/m² | - |
| 1788521052 | 26.11° C | 95% | 1019.3 hPa | 0 mm | - | 18 W/m² | - |
| 1788520771 | 26.11° C | 95% | 1019.1 hPa | 0 mm | - | 20 W/m² | - |
| 1788520443 | 26.11° C | 95% | 1019.2 hPa | 0 mm | - | 14 W/m² | - |
| 1788520139 | 26.11° C | 94% | 1019 hPa | 0 mm | - | 9 W/m² | - |
| 1788519838 | 26.11° C | 94% | 1019.1 hPa | 0 mm | - | 6 W/m² | - |
| 1788519533 | 26.11° C | 94% | 1019.1 hPa | 0 mm | - | 4 W/m² | - |
| 1788519228 | 26.67° C | 93% | 1019 hPa | 0.51 mm | - | 2 W/m² | - |
| 1788518923 | 26.67° C | 93% | 1019 hPa | 1.78 mm | - | 1 W/m² | - |
| 1788518618 | 26.67° C | 92% | 1018.9 hPa | 0.51 mm | - | 0 W/m² | - |
| 1788518315 | 26.67° C | 92% | 1019 hPa | 0 mm | - | 0 W/m² | - |
| 1788518015 | 26.67° C | 91% | 1018.7 hPa | 0 mm | - | 0 W/m² | - |
| 1788517711 | 26.67° C | 91% | 1018.9 hPa | 0 mm | - | 0 W/m² | - |
| 1788517406 | 26.67° C | 90% | 1018.9 hPa | 0 mm | - | 0 W/m² | - |
| 1788517102 | 26.67° C | 90% | 1018.9 hPa | 0 mm | - | 0 W/m² | - |
| 1788516793 | 27.22° C | 89% | 1018.8 hPa | 0 mm | - | 0 W/m² | - |
| 1788516488 | 27.22° C | 89% | 1018.9 hPa | 0 mm | - | 0 W/m² | - |
* Rain latest hour (hover to see other rain measurements)
** Current wind speed in m/s (hover to see current wind gust speed)